SCP
0 0 0 0 0 0 0 0 0 0 0 0 0 0 0 0 0 0 0 0 0 0 0 0 0 0 0 0 0 0 0 0 0 0 0 0 0 0 0 0 0 0 0
0 0 0 0 0 0 0 0 0 0 0 0 0 0 0 0 0 0 0 0 0 0 0 0 0 0 0 0 0 0 0 0 0 0 0 0 0 0 0 0 0 0 0
0 0 0 0 0 0 0 0 0 0 0 0 0 0 0 0 0 0 0 0 0 0 0 0 0 0 0 0 0 0 0 0 0 0 0 0 0 0 0 0 0 0 0
0 0 0 0 0 0 0 0 0 0 0 0 0 0 0 0 0 0 0 0 0 0 0 0 0 0 0 0 0 1 1 0 0 0 0 0 0 0 0 0 0 0 0
1 1 0 0 0 0 0 0 0 0 0 0 0 0 0 0 0 0 0 0 0 0 0 0 0 0 0 0 0 1 1 0 0 0 0 0 0 0 0 0 0 0 0
1 1 1 1 1 0 0 0 0 0 0 0 0 0 0 0 0 0 0 0 0 0 0 0 0 0 0 0 0 0 0 0 0 0 0 0 0 0 0 0 0 0 0
0 0 0 1 1 0 0 0 0 0 0 0 0 0 0 0 0 0 0 0 1 1 0 0 0 0 0 0 0 0 0 0 0 0 0 0 0 0 0 0 0 0 0
0 0 0 0 0 0 0 0 0 0 1 0 0 0 0 0 0 0 0 0 1 1 1 0 0 0 0 0 0 0 0 0 0 0 0 0 0 0 0 0 0 0 0
0 0 0 0 0 0 0 0 1 1 1 1 0 0 0 0 0 0 0 0 1 1 1 0 0 0 0 0 0 0 0 0 0 0 0 0 0 0 0 0 0 0 0
0 0 0 0 0 0 0 0 1 1 1 1 0 0 0 0 0 0 0 0 1 1 0 0 0 0 0 0 0 0 0 0 0 0 0 0 0 0 0 0 0 0 0
0 1 0 0 0 0 0 0 1 1 1 1 1 0 0 0 0 0 0 0 1 1 0 0 0 0 0 0 0 0 0 0 0 0 0 0 0 0 0 0 0 0 0
0 1 0 0 0 0 0 0 0 1 1 1 1 1 0 0 0 0 0 0 0 0 0 0 0 0 0 0 0 0 0 0 0 0 0 0 0 0 0 0 0 0 0
0 1 0 0 0 0 0 0 1 1 1 1 1 1 1 0 0 0 0 0 0 0 0 0 0 0 0 0 0 0 0 0 0 0 0 0 0 0 0 0 0 0 0
0 0 0 0 0 0 0 0 1 1 1 1 1 1 1 0 0 0 0 0 0 0 0 0 0 0 0 0 0 0 0 0 0 0 0 0 0 0 0 0 0 0 0
0 0 0 0 0 0 0 0 0 1 1 1 1 1 0 0 0 0 0 0 0 0 0 1 1 1 1 0 0 0 0 0 0 0 0 0 0 0 0 0 0 0 0
0 0 0 1 1 1 0 0 0 0 0 0 0 0 0 0 0 0 0 0 0 0 0 1 1 1 1 1 1 1 1 0 0 0 0 0 0 0 0 0 1 1 0
0 0 0 1 1 1 0 0 0 0 0 0 0 0 0 0 0 0 0 0 0 0 0 1 1 2 2 1 1 1 1 1 0 0 0 0 0 0 0 1 1 1 1
1 1 1 1 1 0 0 0 0 0 0 0 0 0 0 0 0 0 0 0 0 0 0 1 1 2 2 1 1 1 1 1 1 0 0 0 0 0 0 0 0 0 0
1 1 1 1 1 0 0 0 0 0 0 0 0 0 0 0 0 0 0 0 0 0 1 1 1 1 1 1 1 1 1 1 1 1 0 0 0 0 0 0 0 0 0
1 1 1 1 1 1 0 0 0 0 0 0 0 0 0 0 0 0 0 0 0 1 1 1 1 1 1 1 1 1 1 1 1 1 1 0 0 0 0 0 0 0 0
1 0 1 1 1 1 0 0 0 0 0 0 0 0 0 0 0 0 0 0 0 0 1 1 1 1 1 0 0 0 1 1 1 1 1 1 0 0 0 0 0 0 0
1 1 1 1 1 1 0 0 0 0 0 0 0 0 0 0 0 0 0 0 0 0 0 1 0 0 0 0 0 0 0 0 0 0 1 0 0 0 0 0 0 0 0
1 1 1 1 1 0 0 0 0 1 0 0 0 0 0 0 0 0 0 0 0 0 0 0 0 0 0 0 0 0 0 0 0 0 0 0 0 0 0 0 0 0 0
1 1 1 1 1 0 0 0 0 1 0 0 0 0 0 0 0 0 0 0 0 0 0 0 0 0 0 0 0 0 0 0 0 0 0 0 0 0 0 0 0 0 0
1 1 1 1 0 0 0 0 1 0 0 0 0 0 0 0 0 0 0 0 0 0 0 0 0 0 0 0 0 0 0 0 0 0 0 0 0 0 0 0 0 0 0
1 1 1 0 0 0 0 0 0 0 0 0 0 0 0 0 0 0 0 0 0 0 0 0 0 0 0 0 0 0 0 0 0 0 0 0 0 0 0 0 0 0 0
Wind_Speed
8 7 7 6 5 5 4 3 3 3 3 3 2 2 1 1 2 2 1 1 1 1 1 1 1 1 1 1 1 1 2 2 2 1 1 1 2 2 2 3 2 2 2
8 7 7 6 6 5 4 4 4 4 3 3 3 2 2 1 1 1 1 1 1 1 1 1 1 1 1 1 1 1 1 2 2 2 1 1 2 2 3 3 2 2 2
8 7 7 7 6 5 5 4 4 5 4 4 3 3 2 2 2 2 2 2 1 1 0 0 1 1 1 0 1 1 1 1 1 2 2 2 2 2 3 3 3 3 3
8 8 7 7 6 5 5 5 5 4 4 4 3 3 3 2 2 2 2 2 1 1 0 1 1 1 2 2 1 1 1 1 1 2 2 2 2 2 3 3 3 2 3
8 8 7 7 5 5 4 4 4 4 4 4 3 3 3 2 2 2 2 2 2 2 1 1 0 2 4 3 3 2 2 2 1 2 2 2 2 2 3 3 4 4 3
9 8 7 7 6 5 5 5 4 4 4 4 4 3 3 2 2 1 3 3 3 2 2 2 2 2 2 3 2 3 4 3 3 2 3 3 3 3 3 4 4 4 3
8 8 7 7 7 6 6 5 5 5 5 4 4 3 3 3 4 4 4 4 3 2 2 2 1 1 3 3 4 5 4 3 4 5 4 4 4 4 4 5 4 5 5
8 8 8 7 7 6 6 6 6 5 5 4 4 4 3 3 4 4 5 5 3 3 2 2 2 2 1 3 3 3 2 2 3 4 4 4 4 4 4 5 5 5 5
8 8 8 8 8 7 7 6 6 5 5 5 4 4 4 4 5 5 5 4 3 3 3 2 3 2 2 2 4 3 2 1 1 1 3 3 3 4 5 4 4 4 5
8 8 8 8 8 8 7 6 5 5 5 4 4 4 4 4 5 6 6 4 4 3 2 2 1 2 1 2 4 3 3 2 2 2 3 4 4 3 4 5 4 4 4
7 7 7 7 8 7 6 5 5 5 4 5 4 4 4 4 5 6 6 4 3 3 2 2 1 3 3 3 5 3 3 4 3 3 3 2 2 2 2 3 3 4 5
7 7 7 7 6 6 6 5 5 5 5 5 4 4 3 3 3 5 7 6 4 4 3 2 1 3 3 4 3 2 2 4 3 3 3 2 2 2 3 3 4 4 5
7 7 7 7 6 6 6 6 5 5 4 4 4 4 3 3 3 5 6 6 6 4 2 1 1 3 4 4 4 4 4 3 3 3 3 3 3 3 3 3 4 5 6
8 7 7 7 6 6 5 5 5 5 5 4 4 4 3 3 3 3 4 5 6 5 4 3 4 4 4 3 3 4 4 3 3 3 3 3 3 3 3 3 4 4 5
7 7 7 6 6 5 5 4 5 5 4 4 4 4 4 4 3 3 3 4 4 4 3 3 3 3 3 3 3 2 3 3 3 3 3 3 3 3 3 3 4 4 5
6 6 5 5 5 5 5 4 2 2 3 3 2 2 2 1 2 4 4 3 3 4 4 4 4 3 3 3 3 3 3 3 3 3 3 3 4 4 4 3 4 5 5
6 6 5 5 5 5 5 5 4 3 3 3 3 3 3 2 3 4 4 4 5 6 4 4 4 3 3 3 3 3 3 3 3 3 3 4 4 4 4 4 4 5 5
6 5 5 5 5 5 5 5 4 4 4 3 4 4 4 4 4 4 4 4 3 4 4 4 4 3 3 3 3 3 3 3 3 3 3 4 4 4 4 5 5 6 6
5 4 4 4 4 4 4 4 4 5 4 3 3 3 4 4 4 4 6 4 4 4 4 4 3 3 3 3 3 3 3 3 3 3 3 4 4 4 5 5 5 5 6
4 5 4 4 4 5 4 4 4 4 4 4 4 3 3 3 3 4 4 4 3 3 3 3 3 3 3 3 3 3 3 3 3 3 3 4 4 4 5 6 5 5 6
3 4 6 5 4 5 4 5 4 4 4 4 3 3 4 4 3 3 3 3 3 3 3 3 3 3 3 2 2 3 4 3 3 4 4 4 4 4 4 5 5 5 5
3 3 4 4 4 4 4 4 4 4 4 4 3 3 5 4 3 3 3 2 2 2 2 2 2 2 2 3 3 3 3 4 3 4 4 4 4 4 5 5 5 5 5
3 3 3 3 3 4 4 4 4 4 4 4 4 3 4 4 3 3 2 2 2 2 2 2 2 2 2 2 3 3 4 4 4 4 4 4 4 5 5 5 6 6 7
3 3 3 3 3 3 4 4 3 3 4 4 4 3 3 3 3 3 2 2 2 2 2 2 2 3 3 3 2 2 3 4 5 4 6 5 5 5 5 5 6 7 7
2 2 3 3 3 3 3 3 3 3 3 3 3 3 3 3 3 3 3 2 2 2 3 3 2 3 3 4 3 2 2 3 4 5 5 5 5 5 6 6 6 7 7
2 2 2 2 3 3 3 3 3 3 3 3 3 3 3 3 3 3 2 2 2 2 2 2 3 3 4 3 3 2 2 3 4 6 6 4 5 5 5 5 7 7 7
Wind_Direction
186 186 184 187 188 195 192 185 182 182 181 179 158 149 145 150 147 148 156 138 122 109 104 65 46 16 0 359 321 312 312 311 305 343 353 20 339 336 354 335 331 321 60
186 185 184 183 186 195 192 188 190 187 183 180 168 166 153 156 167 168 163 168 165 123 83 54 55 71 1 343 317 315 328 316 307 319 320 339 326 329 334 319 325 332 339
183 185 183 186 191 196 195 194 194 187 180 179 180 182 177 178 182 190 189 182 179 166 113 13 353 346 319 346 287 303 314 318 303 295 315 333 304 316 309 307 316 316 311
181 183 185 187 189 196 196 194 197 191 186 185 186 188 192 193 196 194 199 197 189 184 208 274 302 309 306 305 283 294 306 293 288 291 299 299 301 316 302 305 306 309 307
182 185 187 185 181 188 191 192 192 192 193 184 188 192 188 200 212 214 205 202 204 197 200 217 332 357 356 329 319 313 304 291 290 294 295 296 304 309 304 300 307 310 308
183 185 184 183 178 184 189 192 185 186 190 184 194 196 194 200 148 228 252 210 214 220 224 224 198 204 205 216 255 300 317 305 306 297 291 298 311 310 311 299 305 307 311
184 180 181 184 183 187 188 189 189 190 190 192 194 196 203 174 165 198 235 242 228 238 247 245 245 247 254 238 200 208 222 249 279 293 295 303 310 315 303 296 301 303 306
185 181 183 189 186 186 189 191 197 197 193 200 198 198 198 178 176 198 217 234 231 228 240 258 257 264 291 292 269 252 245 223 243 259 283 298 311 313 300 297 298 292 285
187 187 186 187 186 186 190 196 200 199 197 200 195 198 204 189 178 194 218 225 227 231 234 251 269 270 73 296 267 260 265 256 180 262 321 319 329 318 306 288 287 289 294
190 190 184 185 185 187 191 191 193 196 199 200 196 203 205 203 172 189 221 228 228 226 223 225 219 282 97 255 259 263 271 285 279 230 226 229 247 237 249 266 284 288 297
186 185 181 182 185 184 182 183 185 191 194 199 198 204 207 201 177 187 212 236 233 232 225 226 190 172 209 239 270 279 304 299 280 274 271 270 269 268 259 269 280 282 286
178 180 181 181 181 180 176 180 186 187 192 197 200 200 207 198 197 190 201 228 260 237 236 237 185 163 208 228 250 287 279 269 270 273 273 276 283 291 296 295 288 278 275
174 178 179 177 178 180 180 180 184 189 196 200 200 206 207 205 190 190 201 215 232 245 247 255 188 187 212 219 222 235 242 249 262 267 274 283 289 293 294 290 286 283 277
176 178 178 178 179 180 183 187 189 193 201 205 210 214 214 210 210 199 201 203 206 221 230 196 191 202 225 242 225 222 237 248 263 271 282 287 288 281 277 282 284 286 283
179 178 178 180 179 184 184 190 198 199 205 211 214 214 214 221 213 204 212 210 209 210 209 211 215 213 223 233 241 245 250 241 243 257 267 273 274 275 279 286 286 284 283
180 181 179 177 178 183 182 179 166 206 177 204 227 237 234 251 150 177 203 215 200 175 194 215 223 227 235 240 244 245 247 251 256 260 263 269 274 275 277 277 276 279 286
184 179 179 180 180 185 188 188 183 172 171 194 199 201 228 215 178 180 183 182 181 178 207 225 233 239 244 248 249 251 254 256 258 258 263 270 274 278 278 278 278 281 285
184 177 180 183 185 189 191 194 194 192 192 194 190 194 207 208 200 189 173 164 185 203 227 235 239 242 243 248 251 252 255 258 258 260 264 270 275 277 280 282 282 286 289
181 177 181 183 187 191 192 194 195 197 203 199 190 172 176 182 180 181 177 205 214 217 224 232 237 241 243 245 250 255 255 258 266 266 267 271 272 272 276 280 282 285 283
182 172 180 185 187 188 192 195 196 199 205 203 203 190 161 171 185 181 200 218 222 225 228 232 234 237 243 248 249 250 254 257 264 265 270 274 273 271 274 277 281 284 283
181 173 180 191 192 191 193 197 199 201 206 207 205 179 178 200 202 200 206 217 224 230 237 244 246 244 243 244 244 248 253 260 264 270 272 272 274 276 277 277 280 283 287
186 185 190 195 194 195 196 201 203 205 205 204 197 171 180 209 206 204 212 223 229 237 242 243 247 250 254 251 247 247 254 262 268 271 273 275 276 277 280 281 282 285 287
193 190 190 193 195 186 196 201 203 206 205 203 200 189 189 209 211 209 213 220 226 234 240 242 247 251 253 256 260 263 261 264 272 277 277 275 276 277 279 280 281 283 282
190 191 189 189 192 196 199 200 202 204 207 207 203 200 199 206 211 213 215 212 222 230 235 241 244 250 261 270 266 268 280 292 287 276 274 274 276 279 281 283 283 282 282
185 187 190 198 200 200 199 201 203 204 207 208 206 206 206 204 208 211 209 204 213 231 240 244 244 246 252 261 268 280 310 304 295 292 277 271 272 276 282 283 285 287 286
187 191 196 200 205 206 204 202 202 204 208 208 207 212 213 210 212 214 213 213 219 230 238 242 245 253 259 257 260 285 287 282 286 291 282 273 271 272 279 279 283 283 285